Terminal Aerodrome Forecast
Issued by NWS Huntsville, AL

Home | Current Version | Previous Version | Text Only | Print | Product List | Glossary On
Versions: 1 2 3 4 5 6 7 8 9 10 11 12 13 14 15 16 17 18 19 20 21 22 23
000
FTUS44 KHUN 311120
TAFHSV
TAF
KHSV 311120Z 3112/0112 VRB04KT P6SM OVC120
     FM311500 11005KT P6SM SCT100 BKN150
     FM011100 00000KT P6SM VCSH OVC050=

USA.gov is the U.S. government's official web portal to all federal, state and local government web resources and services.